| time (UTC) | temp C | wind direction | speed KPH | gust KPH | rain 1hr cm | rain 24hr cm | rain mn cm | humidity % | barometer mb |
| 20260504130333 | 4 | 9 | 0.0 | 19.3 | 0.00 | 0.03 | 0.03 | 59 | 1010.8 |
| 20260504110333 | 5 | 9 | 0.0 | 19.3 | 0.00 | 0.03 | 0.03 | 64 | 1010.5 |
| 20260504100333 | 6 | 9 | 0.0 | 19.3 | 0.00 | 0.03 | 0.03 | 73 | 1009.6 |
| 20260504081834 | 7 | 9 | 0.0 | 19.3 | 0.00 | 0.03 | 0.03 | 70 | 1009.7 |
| 20260504081332 | 7 | 9 | 0.0 | 19.3 | 0.00 | 0.03 | 0.03 | 70 | 1009.7 |
| 20260504080831 | 7 | 9 | 0.0 | 19.3 | 0.03 | 0.03 | 0.03 | 70 | 1009.7 |
| 20260504080333 | 7 | 9 | 0.0 | 19.3 | 0.03 | 0.03 | 0.03 | 70 | 1009.8 |
| 20260504070332 | 8 | 7 | 3.2 | 19.3 | 0.00 | 0.00 | 0.00 | 66 | 1010.2 |
| 20260504050331 | 11 | 354 | 8.0 | 24.1 | 0.00 | 0.00 | 0.00 | 45 | 1008.8 |
| 20260504045831 | 11 | 32 | 1.6 | 24.1 | 0.00 | 0.00 | 0.00 | 44 | 1008.8 |
| 20260504045332 | 11 | 357 | 3.2 | 24.1 | 0.00 | 0.00 | 0.00 | 44 | 1008.7 |
| 20260504044657 | 11 | 0 | 3.2 | 24.1 | 0.00 | 0.00 | 0.00 | 44 | 1008.6 |
| 20260504044155 | 11 | 15 | 1.6 | 24.1 | 0.00 | 0.00 | 0.00 | 43 | 1008.6 |
| 20260504043657 | 11 | 22 | 3.2 | 24.1 | 0.00 | 0.00 | 0.00 | 43 | 1008.4 |
| 20260504043157 | 12 | 1 | 3.2 | 24.1 | 0.00 | 0.00 | 0.00 | 40 | 1008.3 |
| 20260504042657 | 12 | 1 | 3.2 | 24.1 | 0.00 | 0.00 | 0.00 | 40 | 1008.2 |
| 20260504042156 | 12 | 4 | 4.8 | 24.1 | 0.00 | 0.00 | 0.00 | 39 | 1008.2 |
| 20260504041657 | 12 | 11 | 4.8 | 24.1 | 0.00 | 0.00 | 0.00 | 38 | 1008.2 |
| 20260504041157 | 12 | 356 | 1.6 | 24.1 | 0.00 | 0.00 | 0.00 | 38 | 1008.2 |
| 20260504040656 | 12 | 23 | 3.2 | 24.1 | 0.00 | 0.00 | 0.00 | 38 | 1008.1 |
| 20260504040156 | 12 | 9 | 1.6 | 24.1 | 0.00 | 0.00 | 0.00 | 37 | 1008.0 |
| 20260504035656 | 12 | 356 | 4.8 | 24.1 | 0.00 | 0.00 | 0.00 | 37 | 1007.9 |
| 20260504035155 | 12 | 23 | 4.8 | 24.1 | 0.00 | 0.00 | 0.00 | 37 | 1007.7 |
| 20260504034655 | 12 | 5 | 4.8 | 24.1 | 0.00 | 0.00 | 0.00 | 37 | 1007.5 |
| 20260504034155 | 12 | 27 | 3.2 | 24.1 | 0.00 | 0.00 | 0.00 | 37 | 1007.4 |
| 20260504033655 | 12 | 8 | 4.8 | 24.1 | 0.00 | 0.00 | 0.00 | 36 | 1007.2 |
| 20260504033155 | 13 | 6 | 3.2 | 24.1 | 0.00 | 0.00 | 0.00 | 36 | 1007.0 |
| 20260504032656 | 13 | 4 | 8.0 | 24.1 | 0.00 | 0.00 | 0.00 | 36 | 1006.6 |
| 20260504032156 | 13 | 21 | 8.0 | 24.1 | 0.00 | 0.00 | 0.00 | 36 | 1006.5 |
| 20260504031656 | 13 | 23 | 8.0 | 24.1 | 0.00 | 0.00 | 0.00 | 36 | 1006.5 |
| 20260504031156 | 13 | 6 | 9.7 | 24.1 | 0.00 | 0.00 | 0.00 | 36 | 1006.2 |
| 20260504030656 | 13 | 21 | 1.6 | 24.1 | 0.00 | 0.00 | 0.00 | 36 | 1006.0 |
| 20260504030156 | 13 | 5 | 4.8 | 24.1 | 0.00 | 0.00 | 0.00 | 36 | 1005.9 |
| 20260504025656 | 13 | 20 | 4.8 | 24.1 | 0.00 | 0.00 | 0.00 | 35 | 1005.7 |
| 20260504025155 | 14 | 14 | 3.2 | 24.1 | 0.00 | 0.00 | 0.00 | 35 | 1005.6 |
| 20260504024655 | 14 | 16 | 3.2 | 24.1 | 0.00 | 0.00 | 0.00 | 35 | 1005.5 |
| 20260504024154 | 14 | 28 | 3.2 | 24.1 | 0.00 | 0.00 | 0.00 | 35 | 1005.5 |
| 20260504023656 | 14 | 33 | 4.8 | 24.1 | 0.00 | 0.00 | 0.00 | 35 | 1005.3 |
| 20260504023156 | 14 | 13 | 4.8 | 24.1 | 0.00 | 0.00 | 0.00 | 35 | 1005.3 |
| 20260504022656 | 14 | 7 | 4.8 | 24.1 | 0.00 | 0.00 | 0.00 | 35 | 1005.2 |
| 20260504022156 | 15 | 19 | 4.8 | 24.1 | 0.00 | 0.00 | 0.00 | 34 | 1005.1 |
| 20260504021656 | 15 | 354 | 4.8 | 24.1 | 0.00 | 0.00 | 0.00 | 34 | 1005.1 |
| 20260504021156 | 15 | 16 | 3.2 | 24.1 | 0.00 | 0.00 | 0.00 | 34 | 1005.0 |
| 20260504020656 | 15 | 3 | 8.0 | 24.1 | 0.00 | 0.00 | 0.00 | 34 | 1004.9 |
| 20260504020156 | 15 | 26 | 8.0 | 24.1 | 0.00 | 0.00 | 0.00 | 33 | 1004.7 |
| 20260504015655 | 16 | 20 | 8.0 | 24.1 | 0.00 | 0.00 | 0.00 | 33 | 1004.7 |
| 20260504015155 | 16 | 2 | 9.7 | 24.1 | 0.00 | 0.00 | 0.00 | 33 | 1004.5 |
| 20260504014655 | 16 | 3 | 3.2 | 24.1 | 0.00 | 0.00 | 0.00 | 33 | 1004.2 |
| 20260504014155 | 16 | 4 | 3.2 | 24.1 | 0.00 | 0.00 | 0.00 | 33 | 1004.0 |
| 20260504013655 | 17 | 30 | 8.0 | 24.1 | 0.00 | 0.00 | 0.00 | 33 | 1003.9 |
| 20260504013155 | 17 | 357 | 4.8 | 24.1 | 0.00 | 0.00 | 0.00 | 33 | 1003.9 |
| 20260504012655 | 17 | 11 | 4.8 | 24.1 | 0.00 | 0.00 | 0.00 | 32 | 1003.8 |
| 20260504012154 | 17 | 17 | 4.8 | 24.1 | 0.00 | 0.00 | 0.00 | 32 | 1003.7 |
| 20260504011654 | 17 | 12 | 3.2 | 24.1 | 0.00 | 0.00 | 0.00 | 32 | 1003.7 |
| 20260504011154 | 17 | 14 | 4.8 | 24.1 | 0.00 | 0.00 | 0.00 | 32 | 1003.5 |
| 20260504010656 | 18 | 11 | 8.0 | 24.1 | 0.00 | 0.00 | 0.00 | 32 | 1003.4 |
| 20260504010156 | 18 | 22 | 9.7 | 24.1 | 0.00 | 0.00 | 0.00 | 32 | 1003.4 |
| 20260504005655 | 18 | 19 | 4.8 | 24.1 | 0.00 | 0.00 | 0.00 | 33 | 1003.3 |
| 20260504005155 | 18 | 26 | 8.0 | 24.1 | 0.00 | 0.00 | 0.00 | 33 | 1003.2 |
| 20260504004656 | 18 | 19 | 8.0 | 24.1 | 0.00 | 0.00 | 0.00 | 33 | 1003.2 |
| 20260504004155 | 18 | 7 | 8.0 | 24.1 | 0.00 | 0.00 | 0.00 | 32 | 1003.1 |
| 20260504003655 | 18 | 12 | 3.2 | 24.1 | 0.00 | 0.00 | 0.00 | 33 | 1003.0 |
| 20260504003155 | 18 | 26 | 9.7 | 24.1 | 0.00 | 0.00 | 0.00 | 32 | 1003.1 |
| 20260504002654 | 18 | 6 | 8.0 | 24.1 | 0.00 | 0.00 | 0.00 | 32 | 1003.0 |
| 20260504002154 | 18 | 26 | 9.7 | 24.1 | 0.00 | 0.00 | 0.00 | 32 | 1002.9 |
| 20260504001654 | 18 | 345 | 3.2 | 24.1 | 0.00 | 0.00 | 0.00 | 32 | 1002.9 |
| 20260504001154 | 18 | 17 | 9.7 | 24.1 | 0.00 | 0.00 | 0.00 | 31 | 1002.9 |
| 20260504000656 | 18 | 18 | 4.8 | 24.1 | 0.00 | 0.00 | 0.00 | 31 | 1002.8 |
| 20260504000156 | 18 | 358 | 4.8 | 24.1 | 0.00 | 0.00 | 0.00 | 31 | 1002.7 |
| 20260503235655 | 18 | 19 | 8.0 | 24.1 | 0.00 | 0.00 | 0.00 | 31 | 1002.7 |
| 20260503235155 | 18 | 18 | 8.0 | 24.1 | 0.00 | 0.00 | 0.00 | 30 | 1002.6 |
| 20260503234655 | 18 | 358 | 8.0 | 24.1 | 0.00 | 0.00 | 0.00 | 31 | 1002.7 |
| 20260503234137 | 18 | 20 | 4.8 | 24.1 | 0.00 | 0.00 | 0.00 | 31 | 1002.5 |
| 20260503233638 | 19 | 17 | 8.0 | 24.1 | 0.00 | 0.00 | 0.00 | 30 | 1002.7 |
| 20260503233138 | 19 | 21 | 8.0 | 24.1 | 0.00 | 0.00 | 0.00 | 30 | 1002.6 |
| 20260503232638 | 19 | 22 | 4.8 | 24.1 | 0.00 | 0.00 | 0.00 | 30 | 1002.4 |
| 20260503232137 | 19 | 21 | 9.7 | 24.1 | 0.00 | 0.00 | 0.00 | 29 | 1002.4 |
| 20260503231639 | 19 | 16 | 4.8 | 24.1 | 0.00 | 0.00 | 0.00 | 30 | 1002.4 |
| 20260503231138 | 20 | 7 | 8.0 | 24.1 | 0.00 | 0.00 | 0.00 | 29 | 1002.5 |
| 20260503230637 | 20 | 17 | 9.7 | 24.1 | 0.00 | 0.00 | 0.00 | 28 | 1002.4 |
| 20260503230137 | 20 | 22 | 4.8 | 24.1 | 0.00 | 0.00 | 0.00 | 28 | 1002.3 |
| 20260503225637 | 21 | 11 | 8.0 | 24.1 | 0.00 | 0.00 | 0.00 | 27 | 1002.2 |
| 20260503225138 | 21 | 23 | 8.0 | 24.1 | 0.00 | 0.00 | 0.00 | 27 | 1002.2 |
| 20260503224638 | 21 | 349 | 4.8 | 24.1 | 0.00 | 0.00 | 0.00 | 26 | 1002.2 |
| 20260503224138 | 21 | 23 | 4.8 | 24.1 | 0.00 | 0.00 | 0.00 | 24 | 1002.0 |
| 20260503223637 | 21 | 16 | 3.2 | 24.1 | 0.00 | 0.00 | 0.00 | 24 | 1002.0 |
| 20260503223137 | 21 | 18 | 8.0 | 24.1 | 0.00 | 0.00 | 0.00 | 24 | 1002.1 |
| 20260503222637 | 21 | 330 | 3.2 | 24.1 | 0.00 | 0.00 | 0.00 | 24 | 1002.1 |
| 20260503222137 | 22 | 15 | 4.8 | 24.1 | 0.00 | 0.00 | 0.00 | 24 | 1002.0 |
| 20260503221637 | 21 | 13 | 1.6 | 24.1 | 0.00 | 0.00 | 0.00 | 24 | 1001.9 |
| 20260503221137 | 21 | 15 | 4.8 | 24.1 | 0.00 | 0.00 | 0.00 | 24 | 1002.1 |
| 20260503220637 | 21 | 32 | 3.2 | 24.1 | 0.00 | 0.00 | 0.00 | 24 | 1002.2 |
| 20260503220138 | 21 | 4 | 8.0 | 24.1 | 0.00 | 0.00 | 0.00 | 24 | 1002.2 |
| 20260503215638 | 21 | 342 | 1.6 | 24.1 | 0.00 | 0.00 | 0.00 | 24 | 1002.2 |
| 20260503215138 | 21 | 24 | 4.8 | 24.1 | 0.00 | 0.00 | 0.00 | 24 | 1002.3 |
| 20260503214638 | 21 | 345 | 3.2 | 24.1 | 0.00 | 0.00 | 0.00 | 25 | 1002.3 |
| 20260503214138 | 21 | 14 | 8.0 | 24.1 | 0.00 | 0.00 | 0.00 | 25 | 1002.3 |
| 20260503213637 | 21 | 346 | 3.2 | 24.1 | 0.00 | 0.00 | 0.00 | 25 | 1002.3 |
| 20260503213137 | 21 | 10 | 4.8 | 24.1 | 0.00 | 0.00 | 0.00 | 24 | 1002.4 |
| 20260503212637 | 21 | 9 | 8.0 | 24.1 | 0.00 | 0.00 | 0.00 | 24 | 1002.4 |
| 20260503212137 | 21 | 32 | 4.8 | 24.1 | 0.00 | 0.00 | 0.00 | 24 | 1002.4 |
| 20260503211637 | 21 | 21 | 4.8 | 24.1 | 0.00 | 0.00 | 0.00 | 24 | 1002.4 |
| 20260503211137 | 21 | 344 | 1.6 | 24.1 | 0.00 | 0.00 | 0.00 | 24 | 1002.5 |
| 20260503210637 | 21 | 36 | 3.2 | 24.1 | 0.00 | 0.00 | 0.00 | 24 | 1002.5 |
| 20260503210137 | 21 | 26 | 4.8 | 24.1 | 0.00 | 0.00 | 0.00 | 24 | 1002.7 |
| 20260503205636 | 22 | 7 | 3.2 | 24.1 | 0.00 | 0.00 | 0.00 | 24 | 1002.7 |
| 20260503205138 | 22 | 17 | 3.2 | 24.1 | 0.00 | 0.00 | 0.00 | 23 | 1002.7 |
| 20260503204638 | 22 | 348 | 4.8 | 24.1 | 0.00 | 0.00 | 0.00 | 22 | 1002.8 |
| 20260503204138 | 22 | 106 | 0.0 | 14.5 | 0.00 | 0.00 | 0.00 | 22 | 1002.8 |
| 20260503203638 | 22 | 50 | 3.2 | 14.5 | 0.00 | 0.00 | 0.00 | 21 | 1002.9 |
| 20260503203137 | 22 | 192 | 0.0 | 14.5 | 0.00 | 0.00 | 0.00 | 21 | 1003.1 |
| 20260503202636 | 22 | 205 | 0.0 | 14.5 | 0.00 | 0.00 | 0.00 | 21 | 1003.0 |
| 20260503202137 | 23 | 16 | 0.0 | 14.5 | 0.00 | 0.00 | 0.00 | 21 | 1003.0 |
| 20260503201638 | 23 | 37 | 0.0 | 14.5 | 0.00 | 0.00 | 0.00 | 20 | 1003.1 |
| 20260503201138 | 23 | 49 | 1.6 | 14.5 | 0.00 | 0.00 | 0.00 | 21 | 1003.2 |
| 20260503200638 | 23 | 81 | 1.6 | 14.5 | 0.00 | 0.00 | 0.00 | 21 | 1003.3 |
| 20260503200138 | 22 | 28 | 0.0 | 14.5 | 0.00 | 0.00 | 0.00 | 21 | 1003.4 |
| 20260503195637 | 22 | 8 | 0.0 | 14.5 | 0.00 | 0.00 | 0.00 | 21 | 1003.5 |
| 20260503195137 | 22 | 5 | 0.0 | 14.5 | 0.00 | 0.00 | 0.00 | 23 | 1003.6 |
| 20260503194637 | 22 | 5 | 0.0 | 14.5 | 0.00 | 0.00 | 0.00 | 23 | 1003.7 |
| 20260503194137 | 22 | 5 | 0.0 | 14.5 | 0.00 | 0.00 | 0.00 | 22 | 1003.7 |
| 20260503193637 | 22 | 355 | 1.6 | 14.5 | 0.00 | 0.00 | 0.00 | 21 | 1003.8 |
| 20260503193137 | 22 | 71 | 0.0 | 14.5 | 0.00 | 0.00 | 0.00 | 22 | 1003.9 |
| 20260503192636 | 22 | 22 | 1.6 | 14.5 | 0.00 | 0.00 | 0.00 | 23 | 1003.9 |
| 20260503192136 | 22 | 24 | 1.6 | 14.5 | 0.00 | 0.00 | 0.00 | 22 | 1004.0 |
| 20260503191636 | 22 | 315 | 0.0 | 14.5 | 0.00 | 0.00 | 0.00 | 23 | 1004.1 |
| 20260503191136 | 22 | 2 | 0.0 | 14.5 | 0.00 | 0.00 | 0.00 | 22 | 1004.1 |
| 20260503190637 | 21 | 5 | 3.2 | 14.5 | 0.00 | 0.00 | 0.00 | 22 | 1004.4 |
| 20260503190137 | 21 | 13 | 0.0 | 14.5 | 0.00 | 0.00 | 0.00 | 23 | 1004.4 |
| 20260503185637 | 21 | 96 | 0.0 | 14.5 | 0.00 | 0.00 | 0.00 | 23 | 1004.5 |
| 20260503185137 | 21 | 46 | 0.0 | 14.5 | 0.00 | 0.00 | 0.00 | 23 | 1004.6 |
| 20260503184637 | 21 | 19 | 1.6 | 14.5 | 0.00 | 0.00 | 0.00 | 22 | 1004.7 |
| 20260503184137 | 21 | 345 | 0.0 | 14.5 | 0.00 | 0.00 | 0.00 | 22 | 1004.8 |
| 20260503183637 | 21 | 13 | 0.0 | 14.5 | 0.00 | 0.00 | 0.00 | 22 | 1004.8 |
| 20260503183046 | 21 | 0 | 0.0 | 14.5 | 0.00 | 0.00 | 0.00 | 23 | 1004.9 |
| 20260503182546 | 21 | 27 | 1.6 | 14.5 | 0.00 | 0.00 | 0.00 | 24 | 1005.0 |
| 20260503182046 | 21 | 220 | 0.0 | 14.5 | 0.00 | 0.00 | 0.00 | 24 | 1005.1 |
| 20260503181546 | 21 | 5 | 3.2 | 14.5 | 0.00 | 0.00 | 0.00 | 24 | 1005.1 |
| 20260503181046 | 20 | 22 | 1.6 | 14.5 | 0.00 | 0.00 | 0.00 | 25 | 1005.1 |
| 20260503180548 | 20 | 5 | 0.0 | 14.5 | 0.00 | 0.00 | 0.00 | 25 | 1005.3 |
| 20260503180048 | 20 | 16 | 0.0 | 14.5 | 0.00 | 0.00 | 0.00 | 27 | 1005.4 |
| 20260503175547 | 20 | 5 | 0.0 | 14.5 | 0.00 | 0.00 | 0.00 | 27 | 1005.5 |
| 20260503175047 | 20 | 12 | 1.6 | 14.5 | 0.00 | 0.00 | 0.00 | 26 | 1005.6 |
| 20260503174547 | 20 | 20 | 1.6 | 14.5 | 0.00 | 0.00 | 0.00 | 26 | 1005.8 |
| 20260503174051 | 20 | 10 | 1.6 | 14.5 | 0.00 | 0.00 | 0.00 | 27 | 1005.9 |
| 20260503173551 | 20 | 16 | 3.2 | 14.5 | 0.00 | 0.00 | 0.00 | 27 | 1005.9 |
| 20260503173051 | 20 | 357 | 3.2 | 14.5 | 0.00 | 0.00 | 0.00 | 26 | 1006.0 |
| 20260503172550 | 20 | 23 | 0.0 | 14.5 | 0.00 | 0.00 | 0.00 | 27 | 1006.1 |
| 20260503172050 | 20 | 13 | 1.6 | 9.7 | 0.00 | 0.00 | 0.00 | 27 | 1006.1 |
| 20260503171550 | 19 | 5 | 1.6 | 9.7 | 0.00 | 0.00 | 0.00 | 27 | 1006.1 |
| 20260503171050 | 19 | 69 | 0.0 | 8.0 | 0.00 | 0.00 | 0.00 | 28 | 1006.1 |
| 20260503170550 | 19 | 27 | 1.6 | 8.0 | 0.00 | 0.00 | 0.00 | 27 | 1006.1 |
| 20260503150551 | 12 | 167 | 0.0 | 3.2 | 0.00 | 0.00 | 0.00 | 41 | 1007.1 |